User: anonymous   Login
Location: Laterina
(43.5167°N, 11.7167°E)
Time: 05:02:51
(UTC+00:00)
Language:

Cosmos 2142 Rocket - Orbit

View from above orbital plane
View from above orbital plane
View from above satellite
View from above satellite

Ground track
Ground track

The orbit data is extracted from the following two-line orbital elements,

1 21231U 91029B   20339.05661598  .00000054  00000-0  40246-4 0  9996
2 21231  82.9535 250.9125 0034063 294.2538  76.8961 13.75823031487847
Epoch (UTC): 04 December 2020 01:21:31
Eccentricity: 0.0034063
inclination: 82.9535°
perigee height: 953 km
apogee height: 1004 km
right ascension of ascending node: 250.9125°
argument of perigee: 294.2538°
revolutions per day: 13.75823031
mean anomaly at epoch: 76.8961°
orbit number at epoch: 48784

The dashed part of the orbit path shows where the satellite is in the earth's shadow,  

DLR